FW5426 Weather Reports


Display with metric or nautical units.
time (UTC)temp
F
wind
direction
speed
MPH
gust
MPH
rain 1hr
in
rain 24hr
in
rain mn
in
humidity
%
barometer
mb
20260509175310 83 163 5.0 12.0 0.00 0.00 0.00 15 1016.2
20260509175032 83 153 4.0 11.0 0.00 0.00 0.00 15 1016.2
20260509174309 82 207 4.0 11.0 0.00 0.00 0.00 16 1016.2
20260509173810 82 188 3.0 10.0 0.00 0.00 0.00 16 1016.4
20260509173536 81 111 3.0 8.0 0.00 0.00 0.00 17 1016.4
20260509172809 80 227 4.0 8.0 0.00 0.00 0.00 17 1016.4
20260509172309 81 213 4.0 9.0 0.00 0.00 0.00 17 1016.4
20260509171811 80 163 4.0 9.0 0.00 0.00 0.00 18 1016.5
20260509171309 80 200 3.0 8.0 0.00 0.00 0.00 18 1016.7
20260509170809 80 174 3.0 8.0 0.00 0.00 0.00 19 1016.5
20260509170309 79 126 4.0 8.0 0.00 0.00 0.00 19 1016.5
20260509165810 79 225 3.0 7.0 0.00 0.00 0.00 20 1016.5
20260509165309 78 178 3.0 7.0 0.00 0.00 0.00 21 1016.7
20260509164809 78 205 3.0 7.0 0.00 0.00 0.00 21 1016.7
20260509164309 78 226 3.0 7.0 0.00 0.00 0.00 21 1016.5
20260509163810 77 130 4.0 9.0 0.00 0.00 0.00 21 1016.5
20260509163309 76 193 4.0 9.0 0.00 0.00 0.00 22 1016.4
20260509163034 76 187 4.0 8.0 0.00 0.00 0.00 22 1016.4
20260509162307 76 284 4.0 9.0 0.00 0.00 0.00 23 1016.3
20260509162023 76 165 3.0 9.0 0.00 0.00 0.00 24 1016.4
20260509161304 74 133 3.0 7.0 0.00 0.00 0.00 24 1016.4
20260509160804 74 201 4.0 6.0 0.00 0.00 0.00 25 1016.4
20260509160742 74 201 4.0 8.0 0.00 0.00 0.00 25 1016.4
20260509155804 74 163 4.0 8.0 0.00 0.00 0.00 25 1016.3
20260509155306 73 236 5.0 8.0 0.00 0.00 0.00 25 1016.3
20260509154804 73 140 4.0 8.0 0.00 0.00 0.00 25 1016.4
20260509154303 73 178 4.0 9.0 0.00 0.00 0.00 25 1016.4
20260509153803 73 202 4.0 9.0 0.00 0.00 0.00 25 1016.4
20260509153526 72 227 4.0 7.0 0.00 0.00 0.00 26 1016.5
20260509152804 72 128 3.0 7.0 0.00 0.00 0.00 26 1016.4
20260509152306 71 146 3.0 7.0 0.00 0.00 0.00 26 1016.4
20260509151804 71 88 3.0 7.0 0.00 0.00 0.00 27 1016.4
20260509151303 71 146 3.0 6.0 0.00 0.00 0.00 27 1016.4
20260509150804 71 138 3.0 7.0 0.00 0.00 0.00 27 1016.5
20260509150303 71 162 2.0 7.0 0.00 0.00 0.00 28 1016.5
20260509145803 70 107 1.0 3.0 0.00 0.00 0.00 28 1016.7
20260509145306 70 126 1.0 3.0 0.00 0.00 0.00 28 1016.7
20260509145026 69 187 1.0 4.0 0.00 0.00 0.00 28 1016.8
20260509144524 69 160 2.0 4.0 0.00 0.00 0.00 29 1016.7
20260509143755 69 184 2.0 5.0 0.00 0.00 0.00 29 1016.8
20260509143513 69 211 2.0 5.0 0.00 0.00 0.00 29 1016.7
20260509142743 69 181 1.0 4.0 0.00 0.00 0.00 30 1016.7
20260509142241 68 300 1.0 3.0 0.00 0.00 0.00 31 1016.7
20260509141742 67 205 1.0 4.0 0.00 0.00 0.00 31 1016.7
20260509141239 67 217 2.0 4.0 0.00 0.00 0.00 31 1016.7
20260509140739 67 250 1.0 3.0 0.00 0.00 0.00 31 1016.5
20260509140239 67 246 1.0 3.0 0.00 0.00 0.00 31 1016.5
20260509135737 67 195 1.0 3.0 0.00 0.00 0.00 31 1016.5
20260509135234 67 331 0.0 2.0 0.00 0.00 0.00 32 1016.5
20260509135218 67 331 0.0 1.0 0.00 0.00 0.00 33 1016.4
20260509134235 67 331 0.0 1.0 0.00 0.00 0.00 34 1016.3
20260509133734 66 331 0.0 1.0 0.00 0.00 0.00 35 1016.3
20260509133235 65 331 0.0 2.0 0.00 0.00 0.00 35 1016.1
20260509132733 64 331 0.0 2.0 0.00 0.00 0.00 36 1016.0
20260509132233 64 331 0.0 1.0 0.00 0.00 0.00 37 1015.9
20260509131731 63 331 0.0 0.0 0.00 0.00 0.00 38 1015.8
20260509131456 62 331 0.0 0.0 0.00 0.00 0.00 39 1015.8
20260509130730 61 331 0.0 0.0 0.00 0.00 0.00 40 1015.6
20260509130230 60 331 0.0 1.0 0.00 0.00 0.00 40 1015.5
20260509125732 60 331 0.0 1.0 0.00 0.00 0.00 41 1015.6
20260509125229 59 331 0.0 2.0 0.00 0.00 0.00 42 1015.5
20260509124724 58 331 0.0 2.0 0.00 0.00 0.00 42 1015.5
20260509124218 58 331 0.0 2.0 0.00 0.00 0.00 42 1015.5
20260509123712 58 331 0.0 2.0 0.00 0.00 0.00 42 1015.4
20260509123429 58 331 0.0 0.0 0.00 0.00 0.00 42 1015.4
20260509122928 58 229 0.0 0.0 0.00 0.00 0.00 42 1015.3
20260509122421 58 227 0.0 0.0 0.00 0.00 0.00 42 1015.1
20260509121923 58 227 0.0 0.0 0.00 0.00 0.00 42 1015.0
20260509121202 59 227 0.0 0.0 0.00 0.00 0.00 42 1015.0
20260509120702 59 227 0.0 0.0 0.00 0.00 0.00 41 1015.0
20260509120203 60 225 0.0 0.0 0.00 0.00 0.00 41 1014.9
20260509115702 60 225 1.0 2.0 0.00 0.00 0.00 40 1014.9
20260509115203 60 225 1.0 2.0 0.00 0.00 0.00 40 1014.7
20260509114702 60 227 0.0 2.0 0.00 0.00 0.00 40 1014.5
20260509114203 60 227 1.0 3.0 0.00 0.00 0.00 39 1014.6
20260509113704 61 227 1.0 3.0 0.00 0.00 0.00 39 1014.5
20260509113203 61 193 1.0 3.0 0.00 0.00 0.00 39 1014.5
20260509112702 61 211 1.0 2.0 0.00 0.00 0.00 39 1014.5
20260509112203 61 211 1.0 3.0 0.00 0.00 0.00 38 1014.6
20260509111704 61 211 2.0 3.0 0.00 0.00 0.00 38 1014.6
20260509111203 61 213 3.0 4.0 0.00 0.00 0.00 38 1014.5
20260509110702 61 195 2.0 4.0 0.00 0.00 0.00 38 1014.4
20260509110159 62 192 1.0 4.0 0.00 0.00 0.00 38 1014.5
20260509105654 62 215 1.0 3.0 0.00 0.00 0.00 38 1014.4
20260509105155 62 217 2.0 5.0 0.00 0.00 0.00 38 1014.5
20260509104655 62 207 3.0 5.0 0.00 0.00 0.00 37 1014.4
20260509104155 62 219 2.0 5.0 0.00 0.00 0.00 37 1014.4
20260509103656 62 212 1.0 3.0 0.00 0.00 0.00 37 1014.5
20260509103155 63 213 1.0 3.0 0.00 0.00 0.00 37 1014.5
20260509102654 63 188 2.0 4.0 0.00 0.00 0.00 36 1014.4
20260509102155 63 195 2.0 5.0 0.00 0.00 0.00 36 1014.4
20260509101653 63 183 1.0 5.0 0.00 0.00 0.00 36 1014.4
20260509101150 63 194 1.0 4.0 0.00 0.00 0.00 36 1014.5
20260509100649 64 203 2.0 4.0 0.00 0.00 0.00 36 1014.4
20260509100405 64 215 2.0 4.0 0.00 0.00 0.00 35 1014.4
20260509095648 64 203 2.0 4.0 0.00 0.00 0.00 35 1014.3
20260509095148 64 216 2.0 3.0 0.00 0.00 0.00 35 1014.3
20260509094649 64 221 2.0 6.0 0.00 0.00 0.00 35 1014.4
20260509094147 64 166 3.0 6.0 0.00 0.00 0.00 34 1014.4
20260509093646 65 159 3.0 6.0 0.00 0.00 0.00 34 1014.3
20260509093147 65 164 4.0 6.0 0.00 0.00 0.00 34 1014.3
20260509092647 65 156 4.0 7.0 0.00 0.00 0.00 34 1014.2
20260509092140 65 205 4.0 7.0 0.00 0.00 0.00 34 1014.2
20260509091633 65 215 4.0 7.0 0.00 0.00 0.00 34 1014.2
20260509091133 65 221 4.0 7.0 0.00 0.00 0.00 34 1014.3
20260509090634 65 190 4.0 6.0 0.00 0.00 0.00 34 1014.2
20260509090133 65 232 4.0 6.0 0.00 0.00 0.00 34 1014.3
20260509085633 65 200 3.0 6.0 0.00 0.00 0.00 34 1014.3
20260509085131 65 206 4.0 9.0 0.00 0.00 0.00 34 1014.3
20260509084630 65 184 5.0 9.0 0.00 0.00 0.00 33 1014.3
20260509084130 65 227 5.0 8.0 0.00 0.00 0.00 33 1014.3
20260509083630 66 204 4.0 8.0 0.00 0.00 0.00 33 1014.3
20260509083351 66 211 5.0 9.0 0.00 0.00 0.00 33 1014.3
20260509082631 66 179 5.0 9.0 0.00 0.00 0.00 32 1014.3
20260509082131 66 158 5.0 8.0 0.00 0.00 0.00 32 1014.2
20260509081630 67 186 5.0 9.0 0.00 0.00 0.00 32 1014.2
20260509081351 67 197 5.0 9.0 0.00 0.00 0.00 32 1014.2
20260509080631 67 167 5.0 9.0 0.00 0.00 0.00 31 1014.3
20260509080130 67 179 6.0 9.0 0.00 0.00 0.00 31 1014.3
20260509075630 67 171 6.0 10.0 0.00 0.00 0.00 31 1014.3
20260509075354 67 186 6.0 10.0 0.00 0.00 0.00 31 1014.3
20260509074631 67 180 5.0 10.0 0.00 0.00 0.00 31 1014.5
20260509074133 68 172 5.0 8.0 0.00 0.00 0.00 31 1014.4
20260509073631 68 171 4.0 8.0 0.00 0.00 0.00 30 1014.5
20260509073130 68 171 4.0 8.0 0.00 0.00 0.00 30 1014.5
20260509072633 68 173 4.0 8.0 0.00 0.00 0.00 30 1014.4
20260509072130 68 229 5.0 10.0 0.00 0.00 0.00 30 1014.5
20260509071630 69 180 5.0 10.0 0.00 0.00 0.00 29 1014.4
20260509071131 69 193 4.0 7.0 0.00 0.00 0.00 29 1014.4
20260509070631 69 183 4.0 9.0 0.00 0.00 0.00 29 1014.4
20260509070131 69 196 4.0 9.0 0.00 0.00 0.00 29 1014.4
20260509065630 69 202 4.0 8.0 0.00 0.00 0.00 28 1014.5
20260509065131 69 211 5.0 9.0 0.00 0.00 0.00 28 1014.4
20260509064852 70 199 5.0 10.0 0.00 0.00 0.00 28 1014.4
20260509064132 70 162 5.0 10.0 0.00 0.00 0.00 27 1014.4
20260509063630 70 186 6.0 9.0 0.00 0.00 0.00 27 1014.3
20260509063351 70 211 5.0 8.0 0.00 0.00 0.00 27 1014.4
20260509062631 70 209 4.0 8.0 0.00 0.00 0.00 27 1014.4
20260509062131 70 205 4.0 8.0 0.00 0.00 0.00 27 1014.4
20260509061631 71 212 4.0 8.0 0.00 0.00 0.00 26 1014.5
20260509061131 71 186 4.0 7.0 0.00 0.00 0.00 26 1014.5
20260509060630 71 186 4.0 9.0 0.00 0.00 0.00 26 1014.6
20260509060130 71 179 4.0 9.0 0.00 0.00 0.00 26 1014.7
20260509055631 71 175 5.0 9.0 0.00 0.00 0.00 26 1014.6
20260509055130 71 190 4.0 9.0 0.00 0.00 0.00 25 1014.6
20260509054631 72 194 2.0 5.0 0.00 0.00 0.00 24 1014.6
20260509054352 72 196 4.0 8.0 0.00 0.00 0.00 23 1014.6
20260509053630 72 206 5.0 9.0 0.00 0.00 0.00 23 1014.6
20260509053130 73 213 7.0 15.0 0.00 0.00 0.00 22 1014.7
20260509052630 73 159 8.0 15.0 0.00 0.00 0.00 21 1014.5
20260509052610 74 171 9.0 15.0 0.00 0.00 0.00 18 1014.5
20260509051630 74 129 9.0 16.0 0.00 0.00 0.00 16 1014.5
20260509051353 75 157 6.0 16.0 0.00 0.00 0.00 15 1014.4
20260509050630 75 146 3.0 6.0 0.00 0.00 0.00 15 1014.4
20260509050131 75 167 2.0 5.0 0.00 0.00 0.00 14 1014.3
20260509045856 75 213 2.0 4.0 0.00 0.00 0.00 14 1014.2
20260509045130 76 213 2.0 4.0 0.00 0.00 0.00 14 1014.3
20260509044630 76 227 2.0 3.0 0.00 0.00 0.00 14 1014.3
20260509044348 76 214 2.0 3.0 0.00 0.00 0.00 14 1014.2
20260509043853 76 213 2.0 4.0 0.00 0.00 0.00 14 1014.2
20260509043616 76 218 3.0 4.0 0.00 0.00 0.00 14 1014.2
20260509042624 76 224 2.0 4.0 0.00 0.00 0.00 14 1014.1
20260509042341 76 210 2.0 4.0 0.00 0.00 0.00 14 1014.0
20260509041614 76 213 2.0 4.0 0.00 0.00 0.00 14 1013.8
20260509041106 77 210 2.0 4.0 0.00 0.00 0.00 14 1013.8
20260509040606 77 203 2.0 3.0 0.00 0.00 0.00 14 1013.7
20260509040105 77 222 2.0 3.0 0.00 0.00 0.00 13 1013.7
20260509040044 77 236 2.0 3.0 0.00 0.00 0.00 14 1013.6
20260509035103 77 225 1.0 3.0 0.00 0.00 0.00 14 1013.6
20260509034603 77 240 1.0 3.0 0.00 0.00 0.00 13 1013.6
20260509034104 77 240 2.0 4.0 0.00 0.00 0.00 13 1013.5
20260509033603 78 236 1.0 4.0 0.00 0.00 0.00 13 1013.5
20260509033103 78 221 1.0 2.0 0.00 0.00 0.00 13 1013.4
20260509032603 78 221 2.0 3.0 0.00 0.00 0.00 13 1013.4
20260509032551 78 229 2.0 3.0 0.00 0.00 0.00 13 1013.3
20260509031603 79 236 2.0 4.0 0.00 0.00 0.00 13 1013.3
20260509031102 79 226 1.0 4.0 0.00 0.00 0.00 12 1013.3
20260509030603 79 217 2.0 3.0 0.00 0.00 0.00 12 1013.3
20260509025826 80 177 2.0 5.0 0.00 0.00 0.00 11 1013.1
20260509025322 80 135 2.0 5.0 0.00 0.00 0.00 11 1012.9
20260509024603 80 145 2.0 3.0 0.00 0.00 0.00 11 1012.9
20260509024542 81 145 2.0 3.0 0.00 0.00 0.00 11 1013.1
20260509023603 81 123 1.0 3.0 0.00 0.00 0.00 11 1012.8
20260509023321 81 138 1.0 3.0 0.00 0.00 0.00 11 1012.8
20260509022602 82 136 1.0 2.0 0.00 0.00 0.00 10 1012.7
20260509022103 82 130 1.0 3.0 0.00 0.00 0.00 10 1012.7
20260509021603 82 121 1.0 3.0 0.00 0.00 0.00 10 1012.7
20260509021103 82 132 1.0 3.0 0.00 0.00 0.00 10 1012.6
20260509020603 83 129 1.0 2.0 0.00 0.00 0.00 10 1012.6
20260509015602 83 119 2.0 6.0 0.00 0.00 0.00 10 1012.4
20260509015102 83 115 3.0 6.0 0.00 0.00 0.00 10 1012.4
20260509014602 83 98 2.0 6.0 0.00 0.00 0.00 10 1012.3
20260509014102 84 67 2.0 5.0 0.00 0.00 0.00 10 1012.3
20260509013602 84 82 2.0 5.0 0.00 0.00 0.00 10 1012.2
20260509013103 85 58 2.0 4.0 0.00 0.00 0.00 9 1012.2
20260509012604 85 67 2.0 4.0 0.00 0.00 0.00 9 1012.0
20260509012103 85 69 1.0 3.0 0.00 0.00 0.00 9 1012.2
20260509011602 85 49 1.0 4.0 0.00 0.00 0.00 8 1012.0
20260509011323 86 49 2.0 4.0 0.00 0.00 0.00 8 1012.0
20260509010605 86 117 2.0 4.0 0.00 0.00 0.00 8 1012.0
20260509010328 87 120 2.0 4.0 0.00 0.00 0.00 8 1011.9
20260509005602 87 287 1.0 4.0 0.00 0.00 0.00 8 1012.0
20260509005102 87 294 2.0 4.0 0.00 0.00 0.00 8 1011.9
20260509004828 87 279 3.0 7.0 0.00 0.00 0.00 8 1011.9
20260509004102 87 292 3.0 7.0 0.00 0.00 0.00 8 1011.9
20260509003602 87 281 3.0 9.0 0.00 0.00 0.00 8 1011.9
20260509003103 87 269 2.0 9.0 0.00 0.00 0.00 8 1011.9
20260509002603 86 139 3.0 6.0 0.00 0.00 0.00 8 1011.9
20260509002102 86 174 3.0 9.0 0.00 0.00 0.00 8 1011.9
20260509001602 86 246 4.0 9.0 0.00 0.00 0.00 8 1011.9
20260509001102 86 39 5.0 12.0 0.00 0.00 0.00 8 1011.9
20260509000603 87 15 6.0 12.0 0.00 0.00 0.00 8 1012.0
20260508235558 87 315 6.0 16.0 0.00 0.00 0.00 9 1011.9
20260508235057 87 22 5.0 14.0 0.00 0.00 0.00 8 1012.0
20260508234558 87 217 3.0 10.0 0.00 0.00 0.00 8 1012.3
20260508234058 87 198 3.0 7.0 0.00 0.00 0.00 8 1012.3
20260508233558 87 23 4.0 8.0 0.00 0.00 0.00 8 1012.4
20260508233056 87 304 4.0 9.0 0.00 0.00 0.00 9 1012.3
20260508232556 87 313 6.0 14.0 0.00 0.00 0.00 9 1012.4
20260508232056 87 310 8.0 14.0 0.00 0.00 0.00 9 1012.4
20260508231813 87 338 7.0 13.0 0.00 0.00 0.00 9 1012.4
20260508231054 87 302 5.0 12.0 0.00 0.00 0.00 9 1012.3
20260508230553 88 296 3.0 8.0 0.00 0.00 0.00 9 1012.4
20260508230055 87 234 5.0 12.0 0.00 0.00 0.00 9 1012.3
20260508225548 87 254 6.0 12.0 0.00 0.00 0.00 9 1012.3
20260508225041 87 266 6.0 13.0 0.00 0.00 0.00 9 1012.4
20260508224543 87 343 5.0 13.0 0.00 0.00 0.00 8 1012.4
20260508224042 88 332 5.0 10.0 0.00 0.00 0.00 8 1012.4
20260508223807 88 123 6.0 13.0 0.00 0.00 0.00 8 1012.3
20260508223040 88 317 6.0 13.0 0.00 0.00 0.00 8 1012.4
20260508222538 88 220 5.0 13.0 0.00 0.00 0.00 8 1012.4
20260508222038 88 269 5.0 11.0 0.00 0.00 0.00 8 1012.4
20260508221535 87 208 4.0 10.0 0.00 0.00 0.00 8 1012.5
20260508221034 87 259 3.0 9.0 0.00 0.00 0.00 8 1012.5
20260508220533 87 327 4.0 9.0 0.00 0.00 0.00 8 1012.6
20260508220032 87 43 4.0 11.0 0.00 0.00 0.00 8 1012.6
20260508215531 86 355 5.0 12.0 0.00 0.00 0.00 9 1012.6
20260508215030 86 51 5.0 12.0 0.00 0.00 0.00 8 1012.8
20260508214531 86 109 6.0 13.0 0.00 0.00 0.00 8 1012.9
20260508214030 86 82 6.0 13.0 0.00 0.00 0.00 8 1012.9
20260508213531 86 18 6.0 13.0 0.00 0.00 0.00 8 1012.9
20260508213031 87 60 5.0 12.0 0.00 0.00 0.00 8 1013.1
20260508212532 86 51 3.0 8.0 0.00 0.00 0.00 8 1013.1
20260508212027 87 59 3.0 12.0 0.00 0.00 0.00 8 1013.3
20260508211746 87 30 3.0 12.0 0.00 0.00 0.00 7 1013.2
20260508211016 87 44 2.0 5.0 0.00 0.00 0.00 7 1013.3
20260508210509 87 229 4.0 8.0 0.00 0.00 0.00 8 1013.3
20260508210005 86 159 6.0 10.0 0.00 0.00 0.00 8 1013.3
20260508205505 86 217 6.0 10.0 0.00 0.00 0.00 8 1013.3
20260508205005 86 200 4.0 10.0 0.00 0.00 0.00 8 1013.4
20260508204506 86 192 3.0 9.0 0.00 0.00 0.00 8 1013.5
20260508204006 86 329 3.0 9.0 0.00 0.00 0.00 8 1013.6
20260508203728 85 255 3.0 8.0 0.00 0.00 0.00 9 1013.6
20260508203005 85 20 4.0 8.0 0.00 0.00 0.00 8 1013.7
20260508202504 85 18 5.0 12.0 0.00 0.00 0.00 9 1013.7
20260508202003 85 57 6.0 12.0 0.00 0.00 0.00 9 1013.8
20260508201504 85 77 5.0 11.0 0.00 0.00 0.00 8 1013.8
20260508201004 85 61 5.0 10.0 0.00 0.00 0.00 9 1013.8
20260508200504 85 62 4.0 10.0 0.00 0.00 0.00 9 1013.8
20260508200005 84 18 3.0 10.0 0.00 0.00 0.00 10 1013.8
20260508195504 84 341 4.0 11.0 0.00 0.00 0.00 10 1014.2
20260508195004 84 19 4.0 12.0 0.00 0.00 0.00 10 1014.2
20260508194503 84 38 4.0 12.0 0.00 0.00 0.00 11 1014.2
20260508194229 84 18 4.0 12.0 0.00 0.00 0.00 11 1014.3
20260508193502 83 306 3.0 9.0 0.00 0.00 0.00 11 1014.3
20260508192958 83 327 4.0 10.0 0.00 0.00 0.00 11 1014.3
20260508192452 83 13 5.0 10.0 0.00 0.00 0.00 12 1014.5
20260508191945 83 28 4.0 11.0 0.00 0.00 0.00 11 1014.4
20260508191439 83 335 5.0 11.0 0.00 0.00 0.00 11 1014.5
20260508190934 83 0 4.0 11.0 0.00 0.00 0.00 11 1014.5
20260508190434 82 355 3.0 10.0 0.00 0.00 0.00 12 1014.5
20260508185933 82 341 5.0 12.0 0.00 0.00 0.00 13 1014.7
20260508185434 82 350 5.0 12.0 0.00 0.00 0.00 12 1014.7
20260508184933 82 52 5.0 11.0 0.00 0.00 0.00 13 1014.9
20260508184654 81 85 6.0 11.0 0.00 0.00 0.00 14 1015.0
20260508183935 81 355 6.0 16.0 0.00 0.00 0.00 15 1015.0
20260508183433 81 59 5.0 16.0 0.00 0.00 0.00 16 1015.0
20260508182934 81 276 5.0 11.0 0.00 0.00 0.00 16 1015.0
20260508182434 81 80 6.0 12.0 0.00 0.00 0.00 16 1015.1
20260508181934 81 38 6.0 12.0 0.00 0.00 0.00 16 1015.1
20260508181434 81 29 5.0 11.0 0.00 0.00 0.00 15 1015.1
20260508180933 81 23 4.0 11.0 0.00 0.00 0.00 15 1015.1
20260508180436 81 38 4.0 10.0 0.00 0.00 0.00 16 1015.1
20260508175933 80 277 5.0 10.0 0.00 0.00 0.00 16 1015.2
20260508175434 81 52 3.0 9.0 0.00 0.00 0.00 17 1015.2